Daggett-Barstow, CA

8:58 AM PDT on March 28, 2017 (GMT -0700)
Barstow-Daggett

Weather History for KDAG - June, 2014

Change the Weather History Date:

Tuesday, June 10, 2014

  Actual Average Record
Temperature  
Mean Temperature 92 °F 81 °F  
Max Temperature 106 °F 97 °F 110 °F (1994)
Min Temperature 79 °F 65 °F 46 °F (1954)
Degree Days  
Heating Degree Days 0    
Cooling Degree Days 26    
Growing Degree Days 42 (Base 50)    
Moisture  
Dew Point 32 °F    
Average Humidity 14    
Maximum Humidity 22    
Minimum Humidity 5    
Precipitation  
Precipitation 0.00 in 0.00 in 0.01 in (1990)
Month to date precipitation 0.02  
Year to date precipitation 2.00  
Sea Level Pressure  
Sea Level Pressure 29.62 in    
Wind  
Wind Speed 11 mph (WSW)    
Max Wind Speed 25 mph    
Max Gust Speed 32 mph    
Visibility 10 miles    
Events      
T = Trace of Precipitation, MM = Missing Value Source: NWS Daily Summary

Daily Weather History Graph

Daily Weather History Graph

Search for Another Location

Airport or City:

Trip Planner

Search our weather history database for the weather conditions in past years. The results will help you decide how hot, cold, wet, or windy it might be!

Date:

Astronomy

Jun. 10, 2014 Rise Set
Actual Time 5:33 AM PDT 8:00 PM PDT
Civil Twilight 5:03 AM PDT 8:29 PM PDT
Nautical Twilight 4:27 AM PDT 9:06 PM PDT
Astronomical Twilight 3:47 AM PDT 9:46 PM PDT
Moon 5:35 PM PDT (6/10) 3:35 AM PDT (6/10)
Length of Visible Light 15h 26m
Length of Day
14h 27m
Waxing Gibbous, 93% of the Moon is Illuminated
Jun 10
Waxing Gibbous
Jun 12
Full
Jun 19
Last Quarter
Jun 27
New
Jul 5
First Quarter

Hourly Weather History & Observations

Time (PDT) Temp. Dew Point Humidity Pressure Visibility Wind Dir Wind Speed Gust Speed Precip Events Conditions
12:50 AM 84.0 °F 30.9 °F 15% 29.65 in 10.0 mi WNW 9.2 mph - N/A   Clear
1:50 AM 80.1 °F 32.0 °F 17% 29.65 in 10.0 mi West 8.1 mph - N/A   Clear
2:50 AM 80.1 °F 34.0 °F 19% 29.64 in 10.0 mi West 10.4 mph - N/A   Clear
3:50 AM 80.1 °F 36.0 °F 20% 29.64 in 10.0 mi WSW 9.2 mph - N/A   Clear
4:50 AM 79.0 °F 37.0 °F 22% 29.64 in 10.0 mi WSW 8.1 mph - N/A   Clear
6:50 AM 82.0 °F 37.9 °F 21% 29.66 in 10.0 mi WSW 5.8 mph - N/A   Clear
7:50 AM 87.1 °F 37.9 °F 18% 29.65 in 10.0 mi West 9.2 mph - N/A   Clear
8:50 AM 90.0 °F 33.1 °F 13% 29.66 in 10.0 mi West 4.6 mph - N/A   Clear
12:50 PM 102.9 °F 18.0 °F 5% 29.60 in 10.0 mi ESE 18.4 mph 28.8 mph N/A   Clear
1:50 PM 102.0 °F 19.9 °F 5% 29.59 in 10.0 mi Variable 3.5 mph 21.9 mph N/A   Clear
2:50 PM 104.0 °F 19.9 °F 5% 29.57 in 10.0 mi Calm Calm - N/A   Clear
3:50 PM 104.0 °F 28.0 °F 7% 29.56 in 10.0 mi Variable 6.9 mph 18.4 mph N/A   Partly Cloudy
4:50 PM 102.9 °F 32.0 °F 8% 29.55 in 10.0 mi WSW 18.4 mph 26.5 mph N/A   Clear
5:50 PM 100.0 °F 33.1 °F 10% 29.55 in 10.0 mi WSW 19.6 mph 25.3 mph N/A   Clear
6:50 PM 96.1 °F 34.0 °F 11% 29.57 in 10.0 mi SW 20.7 mph - N/A   Clear
8:50 PM 88.0 °F 39.0 °F 18% 29.62 in 10.0 mi SW 19.6 mph 28.8 mph N/A   Clear
9:50 PM 84.9 °F 39.0 °F 20% 29.63 in 10.0 mi SSW 25.3 mph 32.2 mph N/A   Clear
10:50 PM 84.9 °F 39.0 °F 20% 29.65 in 10.0 mi SSW 20.7 mph - N/A   Clear
11:50 PM 84.9 °F 35.1 °F 17% 29.65 in 10.0 mi SW 20.7 mph - N/A   Clear